Lake Charles, LA

9:36 AM CDT on March 23, 2017 (GMT -0500)
Chennault International

Weather History for KCWF - March, 2014

Change the Weather History Date:

Saturday, March 15, 2014

  Actual Average Record
Temperature  
Mean Temperature 64 °F -  
Max Temperature 69 °F 70 °F 86 °F (2008)
Min Temperature 59 °F 54 °F 37 °F (1999)
Degree Days  
Heating Degree Days 1    
Growing Degree Days 14 (Base 50)    
Moisture  
Dew Point 60 °F    
Average Humidity 88    
Maximum Humidity 94    
Minimum Humidity 73    
Precipitation  
Precipitation 0.15 in - - ()
Sea Level Pressure  
Sea Level Pressure 29.94 in    
Wind  
Wind Speed 6 mph (SE)    
Max Wind Speed 18 mph    
Max Gust Speed 24 mph    
Visibility 9 miles    
Events Rain    
Averages and records for this station are not official NWS values.
T = Trace of Precipitation, MM = Missing Value Source: NWS Daily Summary

Daily Weather History Graph

Daily Weather History Graph

Search for Another Location

Airport or City:

Trip Planner

Search our weather history database for the weather conditions in past years. The results will help you decide how hot, cold, wet, or windy it might be!

Date:

Astronomy

Mar. 15, 2014 Rise Set
Actual Time 7:22 AM CDT 7:20 PM CDT
Civil Twilight 6:58 AM CDT 7:44 PM CDT
Nautical Twilight 6:30 AM CDT 8:12 PM CDT
Astronomical Twilight 6:02 AM CDT 8:40 PM CDT
Moon 6:41 PM CDT (3/15) 6:32 AM CDT (3/15)
Length of Visible Light 12h 46m
Length of Day
11h 58m
Waxing Gibbous, 99% of the Moon is Illuminated
Mar 15
Waxing Gibbous
Mar 16
Full
Mar 23
Last Quarter
Mar 30
New
Apr 7
First Quarter

Hourly Weather History & Observations

Time (CDT) Temp. Dew Point Humidity Pressure Visibility Wind Dir Wind Speed Gust Speed Precip Events Conditions
12:15 AM 59.9 °F 56.3 °F 88% 30.07 in 10.0 mi ESE 5.8 mph - N/A   Mostly Cloudy
12:35 AM 60.3 °F 56.3 °F 87% 30.07 in 10.0 mi ESE 5.8 mph - N/A   Mostly Cloudy
12:55 AM 60.8 °F 56.5 °F 86% 30.07 in 10.0 mi ESE 5.8 mph - N/A   Mostly Cloudy
1:15 AM 60.8 °F 56.7 °F 86% 30.06 in 10.0 mi SE 4.6 mph - N/A   Overcast
1:35 AM 60.8 °F 56.7 °F 86% 30.06 in 10.0 mi SE 3.5 mph - N/A   Overcast
1:55 AM 61.0 °F 56.7 °F 86% 30.07 in 10.0 mi ESE 3.5 mph - N/A   Mostly Cloudy
2:15 AM 60.8 °F 56.7 °F 86% 30.07 in 10.0 mi Calm Calm - N/A   Mostly Cloudy
2:35 AM 60.3 °F 56.7 °F 88% 30.07 in 10.0 mi Calm Calm - N/A   Mostly Cloudy
2:55 AM 60.4 °F 56.8 °F 88% 30.05 in 10.0 mi ESE 4.6 mph - N/A   Mostly Cloudy
3:15 AM 60.8 °F 56.8 °F 87% 30.04 in 10.0 mi ESE 4.6 mph - N/A   Mostly Cloudy
3:35 AM 60.8 °F 57.0 °F 87% 30.03 in 10.0 mi ESE 4.6 mph - N/A   Mostly Cloudy
3:55 AM 60.8 °F 57.0 °F 87% 30.02 in 10.0 mi ESE 4.6 mph - N/A   Mostly Cloudy
4:15 AM 60.8 °F 56.8 °F 87% 30.02 in 10.0 mi ESE 4.6 mph - N/A   Mostly Cloudy
6:00 AM 60.8 °F 57.2 °F 88% 30.00 in 10.0 mi Calm Calm - N/A   Mostly Cloudy
6:45 AM 60.8 °F 57.2 °F 88% 30.02 in 10.0 mi Calm Calm - N/A   Mostly Cloudy
7:45 AM 60.8 °F 57.2 °F 88% 30.02 in 10.0 mi Calm Calm - N/A   Mostly Cloudy
8:45 AM 60.8 °F 59.0 °F 94% 30.03 in 10.0 mi Calm Calm - N/A   Mostly Cloudy
9:50 AM 62.6 °F 59.0 °F 88% 30.04 in 10.0 mi East 5.8 mph - N/A   Mostly Cloudy
10:50 AM 64.4 °F 60.8 °F 88% 30.03 in 10.0 mi East 5.8 mph - N/A   Mostly Cloudy
11:45 AM 66.2 °F 60.8 °F 83% 30.02 in 10.0 mi ESE 6.9 mph - N/A   Mostly Cloudy
12:45 PM 68.0 °F 60.8 °F 78% 29.99 in 10.0 mi ESE 6.9 mph - N/A   Mostly Cloudy
1:55 PM 69.8 °F 60.8 °F 73% 29.96 in 10.0 mi SE 9.2 mph - N/A   Mostly Cloudy
2:55 PM 69.8 °F 62.6 °F 78% 29.90 in 10.0 mi ESE 9.2 mph - N/A   Overcast
3:55 PM 68.0 °F 62.6 °F 83% 29.88 in 10.0 mi SE 12.7 mph - N/A Rain Light Rain
4:55 PM 66.2 °F 62.6 °F 88% 29.87 in 10.0 mi SE 6.9 mph - N/A   Mostly Cloudy
5:50 PM 66.2 °F 62.6 °F 88% 29.84 in 10.0 mi ESE 8.1 mph - N/A   Mostly Cloudy
7:50 PM 64.4 °F 62.6 °F 94% 29.81 in 7.0 mi ESE 11.5 mph - N/A Rain Light Rain
8:50 PM 66.2 °F 62.6 °F 88% 29.80 in 10.0 mi SE 15.0 mph 19.6 mph N/A   Mostly Cloudy
9:15 PM 66.7 °F 63.5 °F 89% 29.79 in 10.0 mi SE 12.7 mph - N/A   Mostly Cloudy
9:35 PM 66.6 °F 63.7 °F 90% 29.78 in 3.0 mi SE 13.8 mph - 0.06 in Rain Heavy Rain
9:50 PM 66.2 °F 64.4 °F 94% 29.78 in 5.0 mi SE 9.2 mph 18.4 mph N/A Rain Light Rain
9:55 PM 66.4 °F 63.9 °F 92% 29.78 in 7.0 mi SSW 9.2 mph - 0.14 in Rain Light Rain
10:15 PM 66.4 °F 63.9 °F 92% 29.78 in 7.0 mi South 10.4 mph 18.4 mph 0.01 in Rain Light Rain
10:35 PM 66.6 °F 64.4 °F 93% 29.77 in 7.0 mi SSE 11.5 mph - 0.01 in Rain Light Rain
10:55 PM 67.1 °F 64.9 °F 93% 29.77 in 5.0 mi South 15.0 mph - 0.01 in Rain Light Rain
11:15 PM 67.5 °F 65.3 °F 93% 29.77 in 7.0 mi South 18.4 mph - N/A   Overcast
11:35 PM 67.5 °F 65.1 °F 92% 29.76 in 5.0 mi South 17.3 mph 24.2 mph N/A   Overcast
11:55 PM 67.1 °F 65.1 °F 93% 29.76 in 4.0 mi South 13.8 mph 21.9 mph N/A   Overcast